{"data":{"norad_id":63441,"intl_designator":"2025-069J","name":"STARLINK-33715","alt_names":[],"object_type":"PAYLOAD","status":"ACTIVE","operator":null,"country":"US","launch_date":"2025-04-04","launch_site_code":"AFWTR","launch_vehicle":null,"mission":null,"orbit_class":"UNKNOWN","rcs_meters":null,"size_class":null,"mass_kg":null,"dimensions":null,"purposes":["comms"],"wikipedia_slug":null,"has_3d_model":false,"image_url":null,"decayed_at":null,"tle_current":{"epoch":"2026-09-20T10:13:24.418848Z","epoch_age_seconds":161847,"freshness":"FRESH","line1":"1 63441U 25069J   26263.42597707  .00001643  00000+0  59778-4 0  9993","line2":"2 63441  53.1592 308.4119 0001257  70.7390 289.3749 15.34388108 83354","mean_motion":15.34388108,"eccentricity":0.0001257,"inclination_deg":53.1592,"raan_deg":308.4119,"arg_perigee_deg":70.739,"mean_anomaly_deg":289.3749,"bstar":5.9778e-5,"rev_number":8335,"period_min":93.848485431562,"perigee_km":461.87868790436,"apogee_km":463.59848402667,"semimajor_km":6840.8755859655,"source":"CELESTRAK","updated_at":"2026-09-21T09:00:35.002802Z"}}}